Regional Weather Roundup
Issued by NWS Northern Indiana

Home | Current Version | Previous Version | Graphics & Text | Print | Product List | Glossary On
Versions: 1 2 3 4 5 6 7 8 9 10 11 12 13 14 15 16 17 18 19 20 21 22 23 24 25 26 27 28 29 30 31 32 33 34 35 36 37 38 39 40 41 42 43 44 45 46 47 48 49 50
000
ASUS43 KIWX 280210
RWRIWX

KIWX WEATHER ROUNDUP
NATIONAL WEATHER SERVICE NORTHERN INDIANA
1000 PM EDT WED AUG 27 2014

NOTE: "FAIR" INDICATES FEW OR NO CLOUDS BELOW 12,000 FEET WITH NO
SIGNIFICANT WEATHER AND/OR OBSTRUCTIONS TO VISIBILITY.

* THESE STATIONS ARE NOT UNDER NWS QUALITY CONTROL. THEY ALSO MAY NOT
  REPORT WEATHER SUCH AS PRECIPITATION OR FOG.

INZ001>027-280300-
NORTHERN INDIANA

CITY           SKY/WX    TMP DP  RH WIND       PRES   REMARKS
GARY*          PTCLDY    70  59  68 NE8       30.13R
VALPARAISO     PTCLDY    64  59  83 CALM      30.13R
MICHIGAN CITY* PTCLDY    63  59  88 CALM      30.13R
LAPORTE*       PTCLDY    65  59  81 NE8       30.13R
KNOX*          PTCLDY    64  58  81 CALM      30.11R
SOUTH BEND     MOCLDY    66  59  78 N7        30.13R
GOSHEN         MOCLDY    66  62  87 N5        30.12R
MONTICELLO*    PTCLDY    68  62  81 N6        30.11R
LOGANSPORT*    CLEAR     66  61  82 N6        30.12R
ROCHESTER*     PTCLDY    68  61  77 CALM      30.12R
WARSAW*        PTCLDY    68  63  83 N3        30.11R
ANGOLA*        CLEAR     68  61  77 CALM      30.12R
FORT WAYNE     MOCLDY    69  61  75 N5        30.11R
HUNTINGTON*    CLEAR     69  62  77 N3        30.10R
PERU/GRISSOM   PTCLDY    71  68  92 N8        30.11R
MARION*        PTCLDY    69  62  78 N5        30.11R

$$
INZ028>050-280300-
CENTRAL INDIANA

CITY           SKY/WX    TMP DP  RH WIND       PRES   REMARKS
LAFAYETTE      PTCLDY    70  64  81 N9        30.09R
KOKOMO*        PTCLDY    70  63  78 N7        30.11R
MUNCIE*        CLEAR     68  63  84 CALM      30.10R
INDIANAPOLIS   MOCLDY    77  66  68 N10       30.08R

$$
MIZ043>046-050>051-056>058-064>065-071>073-077>080-280300-
SOUTHWEST LOWER MICHIGAN

CITY           SKY/WX    TMP DP  RH WIND       PRES   REMARKS
BATTLE CREEK   MOCLDY    68  61  78 NW6       30.13R
BENTON HARBOR  CLOUDY    63  59  87 E3        30.12R
COLDWATER*     CLOUDY    66  61  83 CALM      30.12R
HILLSDALE*     CLOUDY    66  62  88 CALM      30.12S
HOLLAND        MOCLDY    66  53  63 CALM      30.14R
GRAND RAPIDS   PTCLDY    66  58  75 N9        30.13R
KALAMAZOO      CLOUDY    66  59  78 N8        30.13R
STURGIS*       CLOUDY    64  63  94 CALM      30.12R
THREE RIVERS*  FAIR      67  62  83 N3        30.12R

$$
OHZ001>008-015>018-024>025-280300-
NORTHWEST OHIO

CITY           SKY/WX    TMP DP  RH WIND       PRES   REMARKS
WAUSEON*       FAIR      66  61  82 NE3       30.11R
DEFIANCE       MOCLDY    70  61  73 N5        30.10R
FINDLAY        MOCLDY    73  64  73 NE7       30.08R
TOLEDO EXPRESS CLOUDY    70  59  68 N7        30.10R
TOLEDO METCALF CLOUDY    72  60  66 CALM      30.10R
LIMA           PTCLDY    71  63  75 NE6       30.09R

$$
&&


USA.gov is the U.S. government's official web portal to all federal, state and local government web resources and services.